SL-14 DEB, 45299

Orbit data source: Space-Track

SL-14 DEB, 45299 is space debris in LEO originally from a launch on Thu, 15 Aug 1991 UTC launched from the Plesetsk Missile And Space Complex (PKMTR). Debris objects in space refer to the collection of defunct objects orbiting the Earth. Examples of debris include non-operational satellites, rocket bodies, and fragments generated from explosions, collisions, or faulty payload assembly.

Loading next visibility...
Identifier
45299, 1991-056AM
Orbit
LEO
Country
Flag of CISCIS
Related business
Manufacturer
Unknown
Mission
Spacecraft
Bus & Motor
Unknown
Mass
Unknown
Launch date (UTC)
1991-08-15 (34 years ago)
Launch vehicle
Unknown
Launch site
Plesetsk Missile And Space Complex (PKMTR)
Object type
Payload
Rocket body
Debris
Shape & HBR
Unknown shape, 0.5 m
Radar Cross Section
Medium (>0.1 m² and <1 m²)

Expand to show TLE details & history
Last TLE update: 7 hours ago

TLE from 7 hours ago
0 SL-14 DEB
1 45299U 91056AM  25299.15260381  .00003905  00000-0  10590-1 0  9996
2 45299  82.6354 339.4866 0093814 239.3056 119.8794 13.12397832272077
Epoch: 2025-10-26T03:39Z
TLE epoch observation values (Epoch: 2025-10-26T03:39:44.969Z)
Latitude
-0.0001°
Longitude
-110.22368°
Altitude
1,252.688 km
Speed
7.212 km/s
True Right ascension
22h 37m 56s
True Declination
0° 00' 00"
Sunlit
Object was in full shadow at epoch
Visualization orbit readout
Latitude
Unknown
Longitude
Unknown
Altitude
Unknown
Speed
Unknown
Apparent Right ascension
Unknown
Apparent Declination
Unknown
Sunlit
N/A
Visualization observer readout
Local Sidereal Time
06:13:04
Azimuth
Unknown
Elevation
Unknown
Doppler factor
Unknown
Orbital elements
Apogee altitude
1,282.343 km
Perigee altitude
1,139.947 km
Semi-major axis
7,589.282 km
Eccentricity
0.00938
Inclination
82.6354°
RAAN
339.4866°
Arg. of periapsis
239.3056°
True anomaly
120.80608°
Mean anomaly
119.8794°
Eccentric anomaly
120.34328°
Mean motion
3.28278 °/min
Orbital period
109.66 mins
BSTAR
0.01059
Loading maneuver chart data...
Computing Atmospheric mass density...
Loading historical data...
Loading historical data...
Loading historical data...
Loading historical data...
Loading historical data...
Loading historical data...
Loading historical data...

Documentation

Showing up to 5 results
|